{"data":{"norad_id":55573,"epoch":"2026-05-25T02:59:31.659072Z","epoch_age_seconds":71106,"freshness":"FRESH","line1":"1 55573U 23020E   26145.12467198  .00001838  00000+0  76330-4 0  9990","line2":"2 55573  43.0002 296.8544 0001208 272.0835  87.9878 15.27569831180566","mean_motion":15.27569831,"eccentricity":0.0001208,"inclination_deg":43.0002,"raan_deg":296.8544,"arg_perigee_deg":272.0835,"mean_anomaly_deg":87.9878,"bstar":7.633e-5,"rev_number":18056,"period_min":94.267376245401,"perigee_km":482.25071089411,"apogee_km":483.90838081159,"semimajor_km":6861.2165458529,"source":"CELESTRAK","updated_at":"2026-05-25T13:38:17.834980Z"}}